Regional Weather Roundup
Issued by NWS

Home | Current Version | Previous Version | Text Only | Print | Product List | Glossary On
Versions: 1 2 3 4 5 6 7 8 9 10 11 12 13 14 15 16 17 18 19 20 21 22 23 24 25 26 27 28 29 30 31 32 33 34 35 36 37 38 39 40 41 42 43 44 45 46 47 48 49 50
000
ASUS44 KFWD 240515
RWRTX
NORTH TEXAS HOURLY WEATHER ROUNDUP
NATIONAL WEATHER SERVICE FORT WORTH TX
1200 AM CDT SUN JUL 24 2016

NOTE: "FAIR" INDICATES FEW OR NO CLOUDS BELOW 12,000 FEET WITH NO
SIGNIFICANT WEATHER AND/OR OBSTRUCTIONS TO VISIBILITY.

TXZ118-119-240600-
DALLAS/FORT WORTH METROPLEX

CITY           SKY/WX    TMP DP  RH WIND       PRES   REMARKS
DFW AIRPORT    CLEAR     89  71  55 SE9       29.91S HX  95
DALLAS LOVE    PTCLDY    90  72  55 SE9       29.91S HX  97
FTW MEACHAM    CLEAR     91  69  48 SE12      29.92R HX  96
DAL-EXECUTIVE  CLEAR     87  71  58 SE7       29.92S HX  93
FTW-ALLIANCE   CLEAR     88  69  53 S7        29.91S HX  92
FTW-NAS-JRB    CLEAR     90  68  48 SE12      29.92R HX  94
FTW-SPINKS     CLEAR     84  70  63 SE7       29.95R
ARLINGTON      CLEAR     88  71  57 SE8       29.92S HX  94
GRAND PRAIRIE  CLEAR     88  70  54 SE7       29.93S HX  93
ADDISON        CLEAR     90  73  57 SE8       29.94S HX  98
MESQUITE       CLEAR     84  71  63 SE5       29.93R
LANCASTER      CLEAR     85  72  64 CALM      29.93R HX  91
$$

TXZ091>094-102>105-117-120-121-131>134-240600-
NORTH CENTRAL TEXAS

CITY           SKY/WX    TMP DP  RH WIND       PRES   REMARKS
SHRMAN/DENISON CLEAR     83  72  67 SE9       29.94S
GAINESVILLE    CLEAR     81  72  73 SE6       29.95R
BOWIE          CLEAR     81  71  71 CALM      29.93S
BRIDGEPORT     CLEAR     84  69  60 S7        29.94S
DECATUR        CLEAR     85  67  54 SE10      29.94S
DENTON         CLEAR     84  71  65 SE8       29.91S
MCKINNEY       CLEAR     83  73  72 S6        29.92F
GREENVILLE     CLEAR     81  70  69 CALM      29.94S
ROCKWALL       HAZE      83  73  71 S5        29.91F VSB 1/2
TERRELL        CLEAR     84  72  67 SE5       29.93S
WAXAHACHIE     CLEAR     84  73  69 SE5       29.94F HX  90
CLEBURNE       CLEAR     84  70  61 SE6       29.96R
GRANBURY       CLEAR     89  68  49 SE9       29.94R HX  92
$$

TXZ083>090-098>101-113>116-127>130-139>142-154-155-240600-
WESTERN NORTH TEXAS

CITY           SKY/WX    TMP DP  RH WIND       PRES   REMARKS
WICHITA FALLS  CLEAR     85  67  54 S13       29.90S
WF-KICKAPOO    CLEAR     87  67  50 SE10      29.92S HX  90
VERNON         CLEAR     87  60  40 SE13      29.91S
ABILENE        CLEAR     85  62  46 SE14      29.96R
ABILENE-DYESS  CLEAR     86  63  45 SE14      29.94R
CISCO          CLEAR     84  63  48 SE10      29.98R
BRECKENRIDGE   CLEAR     87  61  41 SE10      29.93S
GRAHAM         CLEAR     85  67  53 SE7       29.92R
MINERAL WELLS  CLEAR     81  68  64 SE7       29.92R
STEPHENVILLE   CLEAR     82  64  54 SE3       29.98S
COMANCHE       CLEAR     81  64  54 SE7       29.97R
BROWNWOOD      CLEAR     84  64  51 SE8       29.96R
COLEMAN        CLEAR     85  60  42 SE8       29.97R
$$

TXZ143>147-156>162-174-175-240600-
CENTRAL TEXAS

CITY           SKY/WX    TMP DP  RH WIND       PRES   REMARKS
WACO           CLEAR     86  68  54 SE6       29.93R
WACO-MCGREGOR  CLEAR     84  70  62 SE6       29.94R
HILLSBORO      CLEAR     85  69  58 SE6       29.94S
CORSICANA      CLEAR     86  73  65 S5        29.93F HX  93
MEXIA          CLEAR     82  71  68 CALM      29.93S
HEARNE         CLEAR     85  72  66 CALM      29.95R HX  90
CAMERON        CLEAR     86  72  63 S8        29.93R HX  91
TEMPLE         CLEAR     85  70  60 SE12      29.94R
KILLEEN        CLEAR     84  68  57 SE10      29.94R
KILLEEN-SKYLRK CLEAR     87  70  56 SE15      29.94S HX  92
FORT HOOD      CLEAR     84  69  60 SE7       29.92S
GATESVILLE     CLEAR     82  70  65 CALM      29.96S
HAMILTON       CLEAR     84  66  55 SE8       29.97S
LAMPASAS       CLEAR     82  69  65 CALM      29.96R
$$

TXZ095>097-106>112-122>126-135>138-148>153-164>167-240600-
EAST TEXAS

CITY           SKY/WX    TMP DP  RH WIND       PRES   REMARKS
PARIS          MOCLDY    77  63  61 SE6       29.94S
SULPHUR SPRNGS CLEAR     79  72  79 CALM      29.96S
MOUNT PLEASANT CLOUDY    75  75  99 CALM      29.94F
GILMER         CLOUDY    76  71  85 CALM      29.94R
MINEOLA        CLEAR     81  72  74 CALM      29.94S
TYLER          CLEAR     83  70  64 S6        29.92F
LONGVIEW       MOCLDY    75  73  93 CALM      29.92R
MARSHALL       CLOUDY    73  70  92 CALM      29.95S
ATHENS         CLEAR     81  72  74 CALM      29.92S
PALESTINE      CLEAR     83  74  73 SE6       29.94S HX  90
JACKSONVILLE   CLEAR     80  71  74 S7        29.96S
HENDERSON      CLOUDY    76  76  98 CALM      29.93S
CENTER         MOCLDY    81  73  76 W3        29.94R
NACOGDOCHES    PTCLDY   N/A N/A N/A S3        29.92F
LUFKIN         PTCLDY    82  74  76 S6        29.93F
$$

SUPPLEMENTAL OBSERVATIONS (CENTRAL)

CITY           SKY/WX    TMP DP  RH WIND       PRES   REMARKS
DENISON DAM      N/A     82  70  65 SE6         N/A
CADDO GRASSLND   N/A     81  70  69 S7          N/A
PAT MAYSE LAKE   N/A     77  68  73 NE2         N/A
GREENVILLE       N/A     81  72  74 S2          N/A
LAKE LIMESTONE   N/A     84  72  65 S6          N/A
MCGREGOR         N/A     86  66  51 SE7         N/A
TEMPLE           N/A     84  68  58 S7          N/A
$$

SUPPLEMENTAL OBSERVATIONS (WEST)

CITY           SKY/WX    TMP DP  RH WIND       PRES   REMARKS
MILLERS CREEK    N/A     86  63  45 SE12        N/A
POSSUM KINGDOM   N/A     88  64  45 SE8         N/A
LBJ GRASSLAND    N/A     88  68  51 SE8         N/A  HX  91
GRANBURY         N/A     88  68  51 SE9         N/A  HX  91
COMANCHE         N/A     81  63  54 SE7         N/A
HAMBY            N/A     86  61  42 SE12        N/A
IVIE RESERVOIR   N/A     82  57  42 E7          N/A
COLORADO BEND    N/A     84  64  51 S6          N/A
$$

SUPPLEMENTAL OBSERVATIONS (EAST)

CITY           SKY/WX    TMP DP  RH WIND       PRES   REMARKS
CLARKSVILLE      N/A     75  70  83 S2          N/A
TEXARKANA        N/A     75  73  94 CALM        N/A
LINDEN           N/A     73  70  88 CALM        N/A
CADDO LAKE       N/A     73  68  83 CALM        N/A
GILMER           N/A     75  70  83 NE1         N/A
HENDERSON        N/A     75  72  88 CALM        N/A
LUFKIN           N/A     84  73  70 MISG        N/A  HX  91
N SABINE NF      N/A     81  75  83 MISG        N/A
S SABINE NF      N/A     79  73  83 CALM        N/A
$$

SUPPLEMENTAL OBSERVATIONS ARE A COLLECTION OF AUTOMATED INSTRUMENTS
THAT ARE MAINTAINED BY A VARIETY OF FEDERAL AND STATE AGENCIES.
CERTAIN ELEMENTS...SUCH AS HUMIDITY VALUES AND SUSTAINED WIND
SPEEDS...MAY BE APPROXIMATED.





USA.gov is the U.S. government's official web portal to all federal, state and local government web resources and services.